This demonstration page uses our WeatherBlox Daily Observations layout. Learn more.

Hourly Observations for February 6, 2019

Temp ( °F °C ) Dew Point ( °F °C ) Humidity (%) Winds ( mph kmh ) Pressure ( in mb ) Visibility ( mi km ) Precip ( " mm )
12:54 am 00:54 Cloudy 14 -10 6 -14.4 71 71 NNE 9 15 30.09 1019 10 16.0934 0 0
1:54 am 01:54 Cloudy 14 -10 5 -15 67 67 N 9 15 30.09 1019 10 16.0934 0 0
2:54 am 02:54 Cloudy 14 -10 6 -14.4 71 71 N 17 28 30.05 1018 10 16.0934 0 0
3:54 am 03:54 Cloudy 14 -10 6 -14.4 71 71 NNE 14 22 30.04 1017 10 16.0934 0 0
4:45 am 04:45 Cloudy 14 -10 7 -13.9 73 73 NNE 13 20 30.09 1019 10 16.0934 0 0
4:54 am 04:54 Cloudy 14 -10 7 -13.9 73 73 NNE 13 20 30.06 1018 10 16.0934 0 0
5:28 am 05:28 Cloudy 14 -10 7 -13.9 73 73 NNE 12 19 30.11 1020 10 16.0934 0 0
5:50 am 05:50 Cloudy 14 -10 9 -13 79 79 NNE 13 20 30.1 1019 10 16.0934 0 0
5:54 am 05:54 Cloudy 14 -10 8 -13.3 77 77 NNE 12 19 30.05 1018 9 14.48406 0 0
6:54 am 06:54 Cloudy 14 -10 7 -13.9 73 73 NNE 12 19 30.09 1019 9 14.48406 0 0.0254
7:54 am 07:54 Cloudy with Light Snow 13 -10.6 8 -13.3 81 81 N 9 15 30.1 1019 5 8.0467 0 0.0254
8:26 am 08:26 Cloudy with Light Snow 13 -10.6 9 -12.8 84 84 N 12 19 30.14 1021 2 3.21868 0 0.0254
8:50 am 08:50 Cloudy with Light Snow 12 -11 9 -13 85 85 N 12 19 30.15 1021 3 4.82802 0 0.0254
8:54 am 08:54 Cloudy with Light Snow 13 -10.6 8 -13.3 81 81 NNE 12 19 30.09 1019 4 6.43736 0 0.0254
9:10 am 09:10 Cloudy with Light Snow 14 -10 9 -12.8 80 80 N 12 19 30.14 1021 2.5 4.02335 0 0.0254
9:25 am 09:25 Cloudy with Light Snow 14 -10 9 -12.8 80 80 N 10 17 30.15 1021 1.5 2.41401 0 0.0254
9:36 am 09:36 Cloudy with Light Snow 14 -10 9 -12.8 80 80 N 10 17 30.15 1021 2.5 4.02335 0 0.0254
9:54 am 09:54 Cloudy with Light Snow 14 -10 8 -13.3 77 77 N 12 19 30.1 1019 2.5 4.02335 0 0.0254
10:47 am 10:47 Cloudy with Light Snow 14 -10 9 -12.8 80 80 N 12 19 30.16 1021 1.5 2.41401 0 0.0254
10:54 am 10:54 Cloudy with Light Snow 14 -10 9 -12.8 80 80 N 12 19 30.11 1020 1.5 2.41401 0 0.0254
11:18 am 11:18 Cloudy with Light Snow 15 -9.4 9 -12.8 77 77 N 12 19 30.15 1021 1.5 2.41401 0 0.0254
11:34 am 11:34 Cloudy with Light Snow 15 -9.4 9 -12.8 77 77 N 12 19 30.15 1021 2.5 4.02335 0 0.0254
11:54 am 11:54 Cloudy with Light Snow 15 -9.4 9 -12.8 77 77 N 12 19 30.09 1019 2.5 4.02335 0 0.0254
12:43 pm 12:43 Cloudy with Light Snow 15 -9.4 9 -12.8 77 77 NNE 13 20 30.12 1020 1.75 2.816345 0 0.0254
12:54 pm 12:54 Cloudy with Light Snow 15 -9.4 9 -12.8 77 77 N 14 22 30.07 1018 1.5 2.41401 0 0.0254
1:26 pm 13:26 Cloudy with Light Snow 15 -9.4 10 -12.2 80 80 NNE 12 19 30.12 1020 2 3.21868 0 0.0254
1:35 pm 13:35 Cloudy with Light Snow 15 -9.4 10 -12.2 80 80 N 14 22 30.12 1020 1.5 2.41401 0 0.0254
1:54 pm 13:54 Cloudy with Light Snow 15 -9.4 10 -12.2 80 80 N 14 22 30.06 1018 1.25 2.011675 0 0.0254
2:54 pm 14:54 Cloudy with Light Snow 16 -8.9 11 -11.7 80 80 N 14 22 30.05 1018 1.5 2.41401 0 0.0254
3:14 pm 15:14 Cloudy with Light Snow 16 -8.9 11 -11.7 80 80 N 15 24 30.09 1019 2 3.21868 0 0.0254
3:32 pm 15:32 Cloudy with Light Snow 15 -9.4 10 -12.2 80 80 NNE 15 24 30.09 1019 3 4.82802 0 0.0254
3:46 pm 15:46 Cloudy with Light Snow 15 -9.4 10 -12.2 80 80 N 15 24 30.1 1019 2.5 4.02335 0 0.0254
3:54 pm 15:54 Cloudy with Light Snow 15 -9.4 10 -12.2 80 80 N 15 24 30.05 1018 3 4.82802 0 0.0254
4:18 pm 16:18 Cloudy with Light Snow 15 -9.4 10 -12.2 80 80 N 15 24 30.09 1019 2.5 4.02335 0 0.0254
4:32 pm 16:32 Cloudy with Light Snow 15 -9.4 11 -11.7 84 84 NNE 16 26 30.09 1019 1.5 2.41401 0 0.0254
4:44 pm 16:44 Cloudy with Light Snow 15 -9.4 10 -12.2 80 80 N 16 26 30.09 1019 2.5 4.02335 0 0.0254
4:54 pm 16:54 Cloudy with Light Snow 15 -9.4 10 -12.2 80 80 N 15 24 30.04 1017 3 4.82802 0 0.0254
5:03 pm 17:03 Cloudy with Light Snow 15 -9.4 10 -12.2 80 80 NNE 15 24 30.09 1019 2.5 4.02335 0 0.0254
5:08 pm 17:08 Cloudy with Light Snow 15 -9.4 10 -12.2 80 80 NNE 15 24 30.1 1019 3 4.82802 0 0.0254
5:15 pm 17:15 Cloudy with Light Snow 15 -9.4 10 -12.2 80 80 N 16 26 30.1 1019 2.5 4.02335 0 0.0254
5:30 pm 17:30 Cloudy with Light Snow 14 -10 10 -12.2 84 84 N 17 28 30.1 1019 2 3.21868 0 0.0254
5:35 pm 17:35 Cloudy with Light Snow 14 -10 10 -12.2 84 84 N 16 26 30.1 1019 3 4.82802 0 0.0254
5:45 pm 17:45 Cloudy with Light Snow 14 -10 9 -12.8 80 80 N 18 30 30.11 1020 2.5 4.02335 0 0.0254
5:54 pm 17:54 Cloudy with Light Snow 14 -10 10 -12.2 84 84 N 18 30 30.07 1018 2 3.21868 0 0.0254
6:54 pm 18:54 Cloudy with Light Snow 13 -10.6 9 -12.8 84 84 N 16 26 30.11 1020 2 3.21868 0 0.0254
7:54 pm 19:54 Cloudy with Light Snow 13 -10.6 8 -13.3 81 81 N 18 30 30.12 1020 3 4.82802 0 0.0254
8:54 pm 20:54 Cloudy with Light Snow 11 -11.7 6 -14.4 81 81 N 17 28 30.12 1020 5 8.0467 0 0.0254
9:35 pm 21:35 Cloudy 11 -11.7 5 -15 77 77 N 15 24 30.16 1021 9 14.48406 0 0.0254
9:49 pm 21:49 Cloudy with Light Snow 10 -12 5 -15 79 79 N 16 26 30.18 1022 7 11.26538 0 0.0254
9:54 pm 21:54 Cloudy with Light Snow 11 -11.7 5 -15 77 77 NNW 17 28 30.14 1021 7 11.26538 0 0.0254
10:54 pm 22:54 Cloudy with Light Snow 10 -12.2 4 -15.6 76 76 NNW 17 28 30.09 1019 4 6.43736 0 0.0254
11:03 pm 23:03 Cloudy with Light Snow 9 -12.8 4 -15.6 80 80 N 18 30 30.16 1021 5 8.0467 0 0.0254
11:32 pm 23:32 Cloudy with Light Snow 9 -12.8 4 -15.6 80 80 NNW 15 24 30.19 1022 2 3.21868 0 0.0254
11:44 pm 23:44 Cloudy with Light Snow 8 -13.3 4 -15.6 83 83 NNW 15 24 30.2 1023 1.5 2.41401 0 0.0254
11:54 pm 23:54 Cloudy with Light Snow 8 -13.3 3 -16.1 80 80 NNW 15 24 30.14 1021 1.5 2.41401 0 0.0254
11:58 pm 23:58 Cloudy with Light Snow 8 -13.3 4 -15.6 83 83 NNW 14 22 30.2 1023 1.5 2.41401 0 0.0254

Powered by AerisWeather